Flag for Germany Weather past 2 weeks in Zeitz, Saxony-Anhalt, Germany

Now
56 °F

Low clouds.


Feels Like: 55 °F
Forecast: 48 / 66 °F
Wind: 5 mph from West

Location: Gera-Leumnitz

Current Time: Sep 3, 2015 at 10:12:17 PM

Latest Report: Sep 3, 2015 at 10:00 PM


Visibility: 19 mi

Pressure: 29.96 "Hg

Humidity: 88%

Dew point: 52 °F

Location of ZeitzLocation

Historic Weather in Zeitz — Graph

°F

Zeitz temperature yesterday

Maximum temperature yesterday: 66 °F (at 6:00 PM)
Minimum temperature yesterday: 52 °F (at 7:00 AM)
Average temperature yesterday: 59 °F

Past Weeks' High & Low Weather Summary

 TemperatureHumidityPressure
High91 °F (Aug 31, 5:00 PM)100% (Aug 21, 1:00 AM)30.31 "Hg (Aug 21, 1:00 AM)
Low48 °F (Aug 22, 6:00 AM)33% (Aug 21, 3:00 PM)29.67 "Hg (Aug 24, 7:00 PM)
Average65 °F72%30.01 "Hg
* Reported Aug 19 9:00 PM — Sep 3 9:00 PM, Zeitz, Weather by CustomWeather, © 2015

Note: Actual official high and low records may vary slightly from our data, if they occured in-between our weather recording intervals... More about our weather records

Advertising

Zeitz weather history for previous 24 hours

 ConditionsComfort  
Time TempWeatherWind HumidityBarometerVisibility
9:00 PM
Thu, Sep 3
56 °FPassing clouds.2 mph96%29.94 "Hg16 mi
8:00 PM58 °FOvercast.3 mph92%29.92 "Hg22 mi
7:00 PM59 °FOvercast.3 mph87%29.92 "Hg22 mi
6:00 PM60 °FLow clouds.2 mph85%29.92 "Hg25 mi
5:00 PM60 °FLow clouds.2 mph86%29.92 "Hg25 mi
4:00 PM60 °FLight rain. Low clouds.3 mph89%29.93 "Hg17 mi
3:00 PM60 °FLow clouds.5 mph88%29.93 "Hg16 mi
2:00 PM58 °FLight rain. Low clouds.5 mph90%29.94 "Hg11 mi
1:00 PM58 °FLight rain. Overcast.2 mph87%29.95 "Hg10 mi
12:00 PM57 °FLow clouds.2 mph87%29.96 "Hg11 mi
11:00 AM55 °FLight rain. Low clouds.1 mph94%29.97 "Hg9 mi
10:00 AM54 °FLight rain. Low clouds.2 mph95%29.98 "Hg5 mi
9:00 AM57 °FLight rain. Overcast.5 mph84%29.96 "Hg19 mi
8:00 AM57 °FOvercast.2 mph83%29.94 "Hg22 mi
7:00 AM55 °FOvercast.1 mph87%29.95 "Hg22 mi
5:00 AM55 °FPassing clouds.3 mph86%29.96 "Hg19 mi
4:00 AM55 °FOvercast.3 mph86%29.97 "Hg18 mi
3:00 AM56 °FOvercast.1 mph84%29.97 "Hg16 mi
2:00 AM55 °FOvercast.2 mph87%29.99 "Hg14 mi
1:00 AM56 °FClear.2 mph77%29.99 "Hg22 mi
11:00 PM
Wed, Sep 2
58 °FClear.3 mph73%30.00 "Hg28 mi
10:00 PM61 °FPassing clouds.2 mph68%30.00 "Hg34 mi
Weather by CustomWeather, © 2015

See weather overviewHow to use our weather pages